Minchinbury Real Estate, NSW, 2770 Blacktown

Thinking about buying in Minchinbury? Now could not be a better time, with a whopping 2308 properties either residential or commercial there's certainly plenty to choose from.

The average property price for this area is $934,000 with prices in this suburb ranging from $540,000 to $1,512,000.

Distance to the coast is 33 Km.

Minchinbury Real Estate Market Outlook

Good balance between supply and demand ensures a range of affordable options within budget limits. Recent increases in listings may provide buying opportunities. In this area of average incomes, there is a mix of housing size and quality. While this may present buying opportunities, growth may be constrained. As buyers begin to examine Minchinbury due to other areas being out of the price range and the trend to working from home, "gentrification" may incease price growth. A mix of professions and above average income earners in Minchinbury provides good demand. The lower than average housing turnover of these people also means fewer regular listings leading to periodic large price increases. Medium density in Minchinbury necessitates a mix of lifestyle options for housing, shops, open areas, and facilties. Where this is available, demand is high and growth ensured. Higher than average industry presence in the wider area offering local employment yet with not a large negative impact on local amenity, provides good demand and price growth.

About

For Sale

Harcourts 24 TRAMINER PL, MINCHINBURY, NSW, 2770 4 2 2 Just Listed
Harcourts 20 BURING CR, MINCHINBURY, NSW, 2770 5 3 1 UNDER OFFER
LJ Hooker 16 TIRAGE PL, MINCHINBURY, NSW, 2770 3 1 1 New to Market
LJ Hooker UNIT 6, 77 ESKDALE ST, MINCHINBURY, NSW, 2770 3 2 1 Sold
RayWhite 26 ALICANTE ST, MINCHINBURY, NSW, 2770 3 1 3 Contact Agent

More

Local Schools


Minchinbury Public School

(While the above schools are located with the suburb of Minchinbury there may also be nearby schools whose catchments cover this suburb)

Local Crime Stats


Average Local Climate by month


(mm)
RAIN
Min (°C)
TEMP
Max (°C)
TEMP
Min (%)
HUMIDITY
Max (%)
HUMIDITY
(m/sec)
WIND
(MJ/sq m)
SOLAR
Jan2.518.631.642.294.32.922.2
Feb3.518.029.746.295.12.718.8
Mar4.615.92749.996.02.415.5
Apr2.212.224.647.496.72.014.0
May1.17.221.146.996.71.711.4
Jun2.35.818.054.2971.99.2
Jul0.63.718.643.994.72.210.7
Aug1.14.320.037.892.82.613.2
Sept1.17.623.234.593.22.917.3
Oct1.511.625.338.794.12.819.7
Nov2.314.828.239.994.12.922.6
Dec2.616.629.839.994.3323.7

source: Australian Government Bureau of Meteorology

Recently Sold

06-05-2022 $1,230,000 4 LUCAN PL MINCHINBURY 2770
04-05-2022 $900,000 19 BURING CRES MINCHINBURY 2770
02-05-2022 $570,000 20 / 44 BAROSSA DR MINCHINBURY 2770
27-04-2022 $850,000 200 MINCHIN DR MINCHINBURY 2770
26-04-2022 $785,000 168 MINCHIN DR MINCHINBURY 2770
19-04-2022 $780,000 18 HERMITAGE PL MINCHINBURY 2770
12-04-2022 $14,498,000 6 ARCHBOLD RD MINCHINBURY 2770
06-04-2022 $1,150,000 8 WALTON PL MINCHINBURY 2770
05-04-2022 $855,000 7 BAMENT PL MINCHINBURY 2770
29-03-2022 $910,000 12 BURING CRES MINCHINBURY 2770
24-03-2022 $990,000 111 MINCHIN DR MINCHINBURY 2770
22-03-2022 $901,000 29 MCFARLANE DR MINCHINBURY 2770
22-02-2022 $7,300,000 47 STERLING RD MINCHINBURY 2770
22-02-2022 $7,300,000 47 STERLING RD MINCHINBURY 2770
22-02-2022 $10,780,000 22 STERLING RD MINCHINBURY 2770
14-02-2022 $1,315,000 62 ALICANTE ST MINCHINBURY 2770
25-01-2022 $975,000 27 TRAMINER PL MINCHINBURY 2770
21-01-2022 $750,000 2 / 44 BAROSSA DR MINCHINBURY 2770
21-01-2022 $930,000 131 MINCHIN DR MINCHINBURY 2770
20-01-2022 $890,005 60 MINCHIN DR MINCHINBURY 2770
19-01-2022 $950,000 193 MINCHIN DR MINCHINBURY 2770
19-01-2022 $841,000 127 MINCHIN DR MINCHINBURY 2770
18-01-2022 $800,000 37 ALICANTE ST MINCHINBURY 2770
18-01-2022 $500,000 22 / 44 BAROSSA DR MINCHINBURY 2770
18-01-2022 $1,000,000 108 MCFARLANE DR MINCHINBURY 2770
17-01-2022 $960,000 46 MCFARLANE DR MINCHINBURY 2770
17-01-2022 $1,058,500 6 ROOKIN PL MINCHINBURY 2770
14-01-2022 $935,000 16 BOUCHET CRES MINCHINBURY 2770
12-01-2022 $1,060,000 127 ESKDALE ST MINCHINBURY 2770
22-12-2021 $1,072,500 3 PIPER PL MINCHINBURY 2770
22-12-2021 $1,100,100 1 FAIRBURN CRES MINCHINBURY 2770
21-12-2021 $1,080,000 6 PINOT PL MINCHINBURY 2770
16-12-2021 $976,000 22 ALICANTE ST MINCHINBURY 2770
16-12-2021 $1,500,000 14 ANN MINCHIN WAY MINCHINBURY 2770
15-12-2021 $1,332,500 149 MINCHIN DR MINCHINBURY 2770
10-12-2021 $915,000 12 HERMITAGE PL MINCHINBURY 2770
06-12-2021 $955,000 12 RUTHERGLEN PL MINCHINBURY 2770
03-12-2021 $880,000 20 FLEURS ST MINCHINBURY 2770
30-11-2021 $485,000 26 / 44 BAROSSA DR MINCHINBURY 2770
29-11-2021 $945,000 33 BOUCHET CRES MINCHINBURY 2770
24-11-2021 $870,000 5 BAMENT PL MINCHINBURY 2770
19-11-2021 $830,000 13 JACQUES PL MINCHINBURY 2770
16-11-2021 $2,365,000 27 EDDIE RD MINCHINBURY 2770
16-11-2021 $1,210,000 25 EDDIE RD MINCHINBURY 2770
16-11-2021 $2,365,000 27 EDDIE RD MINCHINBURY 2770
16-11-2021 $1,210,000 25 EDDIE RD MINCHINBURY 2770
05-11-2021 $607,000 11 / 44 BAROSSA DR MINCHINBURY 2770
02-11-2021 $950,000 15 TANNER PL MINCHINBURY 2770
28-10-2021 $1,010,000 27 BURING CRES MINCHINBURY 2770
27-10-2021 $954,000 7 ROBINSON ST MINCHINBURY 2770

Residz covers 12m+ Australian properties and brings together a wealth of data to give you a better understanding of an area. From crime and schools to bush fire, flood risk and more. Begin your search for properties for sale or learn more about where you currently reside. Residz is an exciting next-generation Real Estate platform getting better by the day!